Regional Weather Roundup
Issued by NWS

Home | Current Version | Previous Version | Text Only | Print | Product List | Glossary Off
Versions: 1 2 3 4 5 6 7 8 9 10 11 12 13 14 15 16 17 18 19 20 21 22 23 24 25 26 27 28 29 30 31 32 33 34 35 36 37 38 39 40 41 42 43 44 45 46 47 48 49 50

000
ASUS43 KMKX 251721
RWRWI

WISCONSIN REGIONAL WEATHER ROUNDUP
NATIONAL WEATHER SERVICE MILWAUKEE/SULLIVAN WI
1200 PM CDT SAT MAR 25 2017

NOTE: "FAIR" INDICATES FEW OR NO CLOUDS BELOW 12,000 FEET WITH NO
SIGNIFICANT WEATHER AND/OR OBSTRUCTIONS TO VISIBILITY.

WIZ001-002-006>008-014>016-023>028-251800-
NORTHWEST WISCONSIN

CITY           SKY/WX    TMP DP  RH WIND       PRES   REMARKS
SUPERIOR ARPT  CLOUDY    35  32  88 E16G22    30.28F WCI  25
ASHLAND        CLOUDY    36  29  75 NE13      30.29S WCI  27
HAYWARD        CLOUDY    39  28  64 E15       30.23S WCI  31
SIREN          CLOUDY    38  30  73 E6G17     30.22S WCI  33
CUMBERLAND     CLOUDY    36  30  80 NE10      30.20F WCI  28
RICE LAKE      CLOUDY    37  31  81 NE5       30.21F WCI  33
CHETEK         CLOUDY    37  31  80 NE8       30.20F WCI  30
LADYSMITH      CLOUDY    38  31  76 NE13      30.22F WCI  30
EAU CLAIRE     CLOUDY    39  32  76 E17       30.18S WCI  30
MENOMONIE      CLOUDY    39  32  75 NE12      30.18F WCI  32
NEW RICHMOND   CLOUDY    38  31  77 E13G18    30.19S WCI  30
OSCEOLA        CLOUDY    38  32  78 NE10      30.22F WCI  31
$$

WIZ003>005-009-010-017-018-251800-
NORTH CENTRAL WISCONSIN

CITY           SKY/WX    TMP DP  RH WIND       PRES   REMARKS
MANITOWISH WTR CLOUDY    34  32  92 E7        30.24S WCI  28
ARBOR VITAE    CLOUDY    37  32  84 E5        30.23R WCI  33
WOODRUFF       CLOUDY    37  32  84 E5        30.23R WCI  33
RHINELANDER    CLOUDY    36  31  82 E16       30.23S WCI  26
EAGLE RIVER    CLOUDY    34  31  88 E8        30.24S WCI  27
LAND O LAKES   CLOUDY    34  31  88 E9        30.27S WCI  27
PHILLIPS       CLOUDY    35  30  82 E9        30.21F WCI  28
TOMAHAWK       CLOUDY    35  30  81 NE8       30.21F WCI  29
MEDFORD        CLOUDY    35  32  87 E18       30.18S WCI  25
MERRILL        CLOUDY    37  32  84 E15       30.21F WCI  27
$$

WIZ029-030-035-036-043>047-251800-
CENTRAL WISCONSIN

CITY           SKY/WX    TMP DP  RH WIND       PRES   REMARKS
WAUSAU         CLOUDY    37  32  82 E15G22    30.19F WCI  28
MOSINEE        CLOUDY    36  34  93 E18G24    30.19F WCI  25
MARSHFIELD     CLOUDY    37  32  82 E14       30.16S WCI  28
STEVENS POINT  CLOUDY    36  32  86 NE17G25   30.19S WCI  26
WAUPACA        CLOUDY    39  34  81 NE10G18   30.20F WCI  33
WAUTOMA        CLOUDY    37  34  89 NE16G25   30.17F WCI  28
WISC RAPIDS    CLOUDY    37  34  89 E15G25    30.18S WCI  28
CAMP DOUGLAS   CLOUDY    37  34  87 NE9G21    30.13F WCI  31
$$

WIZ011>013-019>022-031-037>040-048>050-251800-
NORTHEAST WISCONSIN

CITY           SKY/WX    TMP DP  RH WIND       PRES   REMARKS
ANTIGO         CLOUDY    34  31  90 E14G24    30.21F WCI  24
SHAWANO        CLOUDY    38  34  84 E14G23    30.24F WCI  30
OCONTO         CLOUDY    37  32  84 NE13G20   30.26F WCI  28
STURGEON BAY   CLOUDY    37  32  82 E16G22    30.26S WCI  28
GREEN BAY      CLOUDY    38  36  92 NE17      30.22F WCI  28
MANITOWOC      CLOUDY    38  34  85 NE12G18   30.21S WCI  30
APPLETON       CLOUDY    37  34  87 NE17G25   30.17F WCI  28
CLINTONVILLE   CLOUDY    36  32  87 E18G26    30.23S WCI  25
OSHKOSH        CLOUDY    37  34  89 NE16G22   30.16F WCI  28
$$

WIZ032>034-041-042-053>061-251800-
SOUTHWEST WISCONSIN

CITY           SKY/WX    TMP DP  RH WIND       PRES   REMARKS
LA CROSSE      CLOUDY    40  35  83 E15       30.12F WCI  32
SPARTA         CLOUDY    37  34  90 NE12G22   30.14F WCI  29
VIROQUA        CLOUDY    36  36  99 NE17      30.08F WCI  26
BOSCOBEL       CLOUDY    40  36  86 NE8G18    30.07S WCI  34
PRAIRIE DU CHI CLOUDY    39  36  87 NE7G22    30.04F WCI  34
PLATTEVILLE    CLOUDY    40  40 100 NE20G25   30.00F WCI  30
$$

WIZ056-057-062-063-064-067-068-251800-
SOUTH CENTRAL WISCONSIN

CITY           SKY/WX    TMP DP  RH WIND       PRES   REMARKS
REEDSBURG      CLOUDY    36  36 100 NE15      30.11S WCI  27
BARABOO/DELLS  CLOUDY    36  35  96 NE14G25   30.10S FOG     WCI  27
LONE ROCK      CLOUDY    40  36  86 NE15      30.08F WCI  32
MINERAL POINT  DRIZZLE   39  39 100 NE18G28   30.00F WCI  30
MADISON        LGT RAIN  38  36  92 NE16      30.08F WCI  29
MIDDLETON      CLOUDY    39  38  94 NE16G23   30.07F WCI  30
WATERTOWN      CLOUDY    38  38 100 E15       30.10S WCI  29
MONROE         LGT RAIN  37  37 100 NE20      30.01R WCI  27
JANESVILLE     LGT RAIN  41  41 100 E21G28    30.04F
$$

WIZ051-052-058>065-066-070>072-251800-
SOUTHEAST WISCONSIN

CITY           SKY/WX    TMP DP  RH WIND       PRES   REMARKS
MILWAUKEE      CLOUDY    39  36  89 NE15      30.12F WCI  31
WAUKESHA       LGT RAIN  36  36 100 NE16G28   30.12  FOG     WCI  26
MILWAUKEE/TIMM CLOUDY    37  34  87 NE12G24   30.14S WCI  30
RACINE         LGT RAIN  39  36  89 NE16      30.12F WCI  30
KENOSHA        LGT RAIN  39  37  92 E20G32    30.09S FOG     WCI  29
FOND DU LAC    CLOUDY    38  33  82 NE15      30.16F WCI  29
SHEBOYGAN      CLOUDY    37  34  89 NE20      30.17F WCI  27
WEST BEND      LGT RAIN  36  36 100 NE15G23   30.14S WCI  26
JUNEAU         CLOUDY    37  36  96 NE17      30.12F WCI  27
$$

LSZ147-162-251800-
LAKE SUPERIOR

STATION/POSITION TIME  TEMP    WIND        PRES    WAVE
                       AIR SEA DIR/SP/G            HT/PER
                 (UTC) (F)     (DEG/KT/KT) (MB)    (FT/S)
DEVILS ISLAND    1700   33      70/ 23/ 26 1027.3F
PORT WING        1640   35      30/ 19/ 22 1025.7F
SAXON HARBOR     1640   34      60/ 11/ 15 1025.4S
$$

LMZ867-665-643>646-251800-
LAKE MICHIGAN

STATION/POSITION TIME  TEMP    WIND        PRES    WAVE
                       AIR SEA DIR/SP/G            HT/PER
                 (UTC) (F)     (DEG/KT/KT) (MB)    (FT/S)
CHAMBERS ISLAND  1640   35      40/ 13/ 19 1025.4R
NORTHPORT PIER   1640   34      70/ 15/ 20 1026.1S
SISTER BAY       1636   38      80/  8/ 16   N/A
KEWAUNEE LAKESHO 1654   37      50/ 14/ 19 1023.1R
SHEBOYGAN LAKESH 1700   37      30/ 18/ 20 1022.3F
PORT WASHINGTON  1640   38      40/ 18/ 21 1022.0S
MILWAUKEE LAKESH 1700   37      30/ 14/ 15   N/A
KENOSHA   LAKESH 1700   38      50/ 17/ 19 1019.0
$$

TC  - TEMPERATURE IN CELSIUS
VSB - VISIBILITY IN STATUTE MILES
WCI - WIND CHILL INDEX
HX  - HEAT INDEX





USA.gov is the U.S. government's official web portal to all federal, state and local government web resources and services.